Regional Weather Roundup
Issued by NWS

Home | Current Version | Previous Version | Graphics & Text | Print | Product List | Glossary On
Versions: 1 2 3 4 5 6 7 8 9 10 11 12 13 14 15 16 17 18 19 20 21 22 23 24 25 26 27 28
000
ASUS45 KPSR 262010
RWRAZ

ARIZONA HOURLY REGIONAL WEATHER ROUNDUP
NATIONAL WEATHER SERVICE PHOENIX AZ
100 PM MST FRI AUG 26 2016

NOTE: FAIR INDICATES FEW OR NO CLOUDS BELOW 12,000 FEET WITH NO
SIGNIFICANT WEATHER AND/OR OBSTRUCTIONS TO VISIBILITY.

AZZ001>003-036-262100-
NORTHWEST ARIZONA

CITY           SKY/WX    TMP DP  RH WIND       PRES   REMARKS
BULLHEAD CITY  SUNNY     99  54  22 S15G23    29.85F
KINGMAN        MOSUNNY   87  49  26 W8        30.04F
$$

AZZ004>008-015-016-018-262100-
NORTH CENTRAL ARIZONA

CITY           SKY/WX    TMP DP  RH WIND       PRES   REMARKS
GRAND CANYON   MOSUNNY   74  47  38 VRB3      30.26F
PRESCOTT       PTSUNNY   70  55  59 SE9       30.19F
FLAGSTAFF      PTSUNNY   64  48  56 VRB7      30.28F THUNDER
PAYSON         PTSUNNY   73  52  46 SE7       30.22F
PAGE           MOSUNNY   78  53  41 VRB6      30.11F
$$

AZZ009>014-017-262100-
NORTHEAST ARIZONA

CITY           SKY/WX    TMP DP  RH WIND       PRES   REMARKS
WINSLOW        SUNNY     79  51  37 VRB7      30.17F
SAINT JOHNS    PTSUNNY   75  48  38 MISG      30.22F
WINDOW ROCK    PTSUNNY   69  50  50 S10       30.28F
SHOW LOW       PTSUNNY   66  45  45 S14       30.28S
$$

AZZ023-262100-
GREATER PHOENIX AREA

CITY           SKY/WX    TMP DP  RH WIND       PRES   REMARKS
PHOENIX        PTSUNNY   95  55  26 E5        29.90F
BUCKEYE        MOSUNNY   93  55  27 E12       29.92F
GLENDALE       PTSUNNY   93  55  27 NW5       29.93F
LUKE AFB       MOSUNNY   94  57  28 NE10      29.91F
DEER VALLEY    PTSUNNY   91  55  29 NW12      29.94F
SCOTTSDALE     MOSUNNY   94  54  25 E3        29.95F
MESA-FALCON    MOSUNNY  N/A N/A N/A SE9       29.90F
MESA-GATEWAY   PTSUNNY   91  57  31 S6        29.93F
CHANDLER       PTSUNNY   95  55  26 S9        29.92F
$$

AZZ027-028-262100-
SOUTHWEST MARICOPA COUNTY AND PINAL COUNTY

CITY           SKY/WX    TMP DP  RH WIND       PRES   REMARKS
CASA GRANDE    MOSUNNY   91  57  31 NE5       29.95F
GILA BEND      PTSUNNY   97  57  26 SE10G22   29.87F
$$

AZZ503-504-507>509-262100-
SOUTHEAST ARIZONA

CITY           SKY/WX    TMP DP  RH WIND       PRES   REMARKS
TUCSON         PTSUNNY   86  62  44 W10       30.03S
DAVIS-MONTHAN  PTSUNNY   79  62  56 SE20G25   30.01F
RYAN FIELD     SUNNY     84  63  48 SW5       30.01F
NOGALES        MOSUNNY   87  58  37 SW10      30.08F
SIERRA VISTA   CLOUDY    76  62  61 N12       30.14S
DOUGLAS        MOSUNNY   77  58  51 SW16      30.10S
SAFFORD        SUNNY     87  54  32 W12       30.02F
$$

AZZ020-021-025-026-031-262100-
SOUTHWEST ARIZONA

CITY           SKY/WX    TMP DP  RH WIND       PRES   REMARKS
YUMA           PTSUNNY   99  64  31 S14G24    29.82F HX 101
$$

CAZ031-033-041-043-047-048-061-262100-
SOUTHERN CALIFORNIA

CITY           SKY/WX    TMP DP  RH WIND       PRES   REMARKS
DOWNTOWN L.A.  SUNNY     77  56  48 VRB3      29.95F
L.A. AIRPORT   MOSUNNY   74  57  55 SW13      29.97F
SAN DIEGO      MOSUNNY   71  56  58 SW10      29.98F
BURBANK        SUNNY     74  56  53 SW5       29.96F
ONTARIO        MOSUNNY   78  56  46 SW7       29.96F
RIVERSIDE      SUNNY     77  56  48 SW7       29.96F
PALM SPRINGS   MOSUNNY   95  50  21 VRB5      29.85F
EL CENTRO NAS  MOSUNNY   99  57  24 VRB6      29.81F
IMPERIAL       SUNNY     99  65  32 VRB6      29.79F HX 102
BLYTHE         MOSUNNY   97  63  32 SE9       29.84F
NEEDLES        MOSUNNY   98  56  24 S15G21    29.87F
$$

NVZ020-UTZ003-262100-
SOUTHERN NEVADA-UTAH

CITY           SKY/WX    TMP DP  RH WIND       PRES   REMARKS
LAS VEGAS      MOSUNNY   96  40  14 VRB7      29.89F
SALT LAKE CITY PTSUNNY   85  40  20 S10G20    29.99F
$$

NMZ009-TXZ055-262100-
NEW MEXICO-WEST TEXAS

CITY           SKY/WX    TMP DP  RH WIND       PRES   REMARKS
ALBUQUERQUE    PTSUNNY   76  46  34 S7        30.18F
EL PASO        MOSUNNY   85  56  37 S5        30.08F
$$


........................KEY........................
SKY/WX - SKY CONDITION/WEATHER
TMP    - TEMPERATURE IN FAHRENHEIT
DP     - DEW POINT IN FAHRENHEIT
RH     - RELATIVE HUMIDITY IN PERCENT
WIND   - DIRECTION AND SPEED IN MILES PER HOUR (MPH)
VRB    - VARIABLE WIND DIRECTION
PRES   - MEAN SEA LEVEL PRESSURE IN INCHES OF MERCURY
         F - FALLING PRESSURE   R - RISING PRESSURE
         S - STEADY PRESSURE
VSB    - VISIBILITY IN MILES
HX     - HEAT INDEX IN FAHRENHEIT
WCI    - WIND CHILL INDEX IN FAHRENHEIT
TC     - TEMPERATURE IN CELSIUS WHICH IS ALSO KNOWN AS
         TEMPERATURE IN CENTIGRADE
AFB    - AIR FORCE BASE
         LUKE AFB IS LUKE AIR FORCE BASE
         DAVIS-MONTHAN IS DAVIS-MONTHAN AIR FORCE BASE
NAS    - NAVAL AIR STATION
         EL CENTRO NAS IS EL CENTRO NAVAL AIR STATION
N/A    - NOT AVAILABLE





USA.gov is the U.S. government's official web portal to all federal, state and local government web resources and services.